User: anonymous   Login
Location: All Nations United Methodist Church
(33.0215°N, 96.7483°W)
Time: 16:58:11
(UTC+00:00)
Language:

CZ-2C R/B - Orbit

View from above orbital plane
View from above orbital plane
View from above satellite
View from above satellite

Ground track
Ground track

The orbit data is extracted from the following two-line orbital elements,

1 43173U 18011E   21104.32063956  .00001822  00000-0  51619-4 0  9990
2 43173  34.9718 335.7089 0141019 220.2529 138.7673 15.26570682179403
Epoch (UTC): 14 April 2021 07:41:43
Eccentricity: 0.0141019
inclination: 34.9718°
perigee height: 389 km
apogee height: 583 km
right ascension of ascending node: 335.7089°
argument of perigee: 220.2529°
revolutions per day: 15.26570682
mean anomaly at epoch: 138.7673°
orbit number at epoch: 17940

The dashed part of the orbit path shows where the satellite is in the earth's shadow,  

DLR